Regional Weather Roundup
Issued by NWS Jackson, KY

Home | Current Version | Previous Version | Text Only | Print | Product List | Glossary Off
Versions: 1 2 3 4 5 6 7 8 9 10 11 12 13 14 15 16 17 18 19 20 21 22 23 24 25 26 27 28 29 30 31 32 33 34 35 36 37 38 39 40 41 42 43 44 45 46 47 48 49 50

000
ASUS43 KJKL 270211
RWRJKL

EAST KENTUCKY HOURLY WEATHER ROUNDUP
NATIONAL WEATHER SERVICE JACKSON KY
900 PM EST MON JAN 26 2015

NOTE: "FAIR" INDICATES FEW OR NO CLOUDS BELOW 12,000 FEET WITH
NO SIGNIFICANT WEATHER AND/OR OBSTRUCTIONS TO VISIBILITY.

* THESE REPORTS ARE NOT UNDER NWS QUALITY CONTROL AND MAY NOT
  REPORT WEATHER SUCH AS PRECIPITATION AND FOG.

KYZ079-080-083-085-087-088-110-112-115-119-120-270300
...EASTERN KENTUCKY...

CITY           SKY/WX    TMP DP  RH WIND       PRES   REMARKS
JACKSON        CLOUDY    26  19  74 VRB3      29.92S
LONDON         CLOUDY    30  22  72 CALM      29.93F
SOMERSET*      LGT SNOW  28  27  93 CALM      29.96F
MONTICELLO*    LGT SNOW  28  28 100 CALM      29.98F FOG
MIDDLESBORO*   CLOUDY    30  25  81 CALM      29.94F
HARLAN APT*    CLOUDY    30  25  80 W5        29.91S WCI  25
BLACK MTN*       N/A     18  18 100 NE1         N/A
PIKEVILLE APT* CLOUDY    25  23  93 CALM      29.90S
BIG SANDY*     CLOUDY    27  23  85 NW3       29.92S
MOREHEAD APT*  CLOUDY    27  21  80 SW3       29.95S
$$

KYZ035-036-041-042-044-050-067-078-099-270300
...CENTRAL KENTUCKY...

CITY           SKY/WX    TMP DP  RH WIND       PRES   REMARKS
MT STERLING*   CLOUDY    28  23  80 W3        29.95S
FLEMING/MASON* MOCLDY    25  20  82 CALM      29.95S
DANVILLE*      CLOUDY    30  25  80 CALM      29.95S
RICHMOND*      CLOUDY    28  23  80 CALM      29.93F
LEXINGTON      CLOUDY    28  22  78 CALM      29.94S
FRANKFORT      CLOUDY    28  23  81 CALM      29.94R
$$

KYZ091>093-OHZ055-061-077-WVZ005-015-034-035-042-270300
...SOUTHERN OHIO/WEST VIRGINIA...

CITY           SKY/WX    TMP DP  RH WIND       PRES   REMARKS
COVINGTON      MOCLDY    25  18  74 E6        29.93S WCI  18
COLUMBUS       PTCLDY    15   9  76 N6        29.94S WCI   6
DAYTON         PTCLDY    12   9  87 CALM      29.94S
WILMINGTON     CLOUDY    14   9  80 CALM      29.92S
HUNTINGTON     MOCLDY    26  20  77 CALM      29.92F
CHARLESTON     FLURRIES  27  22  81 VRB5      29.90S WCI  22
PINEVILLE*     CLOUDY    28  27  95 MISG      29.90S
BECKLEY        CLOUDY    22  20  92 NW13G20   29.79R WCI  10
BLUEFIELD      CLOUDY    24  20  84 NW12G22   29.77R FOG     WCI  13
$$

VAZ002-007-008-TNZ017-027-036-066-071-270300
...SOUTHWEST VIRGINIA/EAST TENNESSEE...

CITY           SKY/WX    TMP DP  RH WIND       PRES   REMARKS
WISE*          CLOUDY    27  27 100 NW3       29.84S FOG
JONESVILLE*    CLOUDY    28  25  86 W6        29.94S WCI  22
ABINGDON*      CLOUDY    30  26  85 N10       29.85S WCI  21
BRISTOL        CLOUDY    30  25  81 W12       29.89S WCI  20
KNOXVILLE      LGT SNOW  31  26  82 W6        29.96S WCI  25
OAK RIDGE      FLURRIES  32  26  78 W6        29.97S WCI  26
CROSSVILLE     LGT SNOW  29  26  89 NW3       29.92R FOG
NASHVILLE      CLOUDY    34  31  88 CALM      29.98R
$$

...KEY TO REMARKS...
VSB - VISIBILITY IN MILES
WCI - WIND CHILL INDEX
HX  - HEAT INDEX

$$


USA.gov is the U.S. government's official web portal to all federal, state and local government web resources and services.